{"data":{"norad_id":60360,"epoch":"2026-09-21T20:32:59.498880Z","epoch_age_seconds":68377,"freshness":"FRESH","line1":"1 60360U 24138F   26264.85624420  .00000718  00000+0  34922-4 0  9993","line2":"2 60360  53.1593 116.8673 0001204  65.2618 294.8509 15.31688027120685","mean_motion":15.31688027,"eccentricity":0.0001204,"inclination_deg":53.1593,"raan_deg":116.8673,"arg_perigee_deg":65.2618,"mean_anomaly_deg":294.8509,"bstar":3.4922e-5,"rev_number":12068,"period_min":94.013922849578,"perigee_km":469.95107726068,"apogee_km":471.60029543555,"semimajor_km":6848.9126863481,"source":"CELESTRAK","updated_at":"2026-09-22T09:00:49.224377Z"}}